Wind_Speed
21 24 24 22 22 20 16 14 17 11 19 22 12 20 20 17 13 14 16 15 14 13 15 12 7 3 2 5 8 7 7 8 7 8 10 12 15 16 18 19 21 20 24 25
23 30 22 20 21 22 20 12 15 17 14 13 12 16 18 18 16 15 17 17 17 17 19 12 14 15 11 12 3 4 5 3 2 4 7 10 12 16 19 21 23 24 27 27
29 26 23 20 21 21 20 16 13 18 14 9 11 17 21 14 17 17 18 18 19 22 20 13 9 8 10 8 5 5 6 6 7 11 13 15 14 13 15 18 12 22 22 24
26 23 24 23 22 20 23 17 18 20 14 17 19 22 27 25 20 20 22 22 22 23 21 19 15 12 12 8 7 4 2 4 7 11 18 22 20 15 17 19 21 18 21 20
29 26 29 27 25 22 20 18 19 16 17 19 18 17 25 24 24 24 26 26 24 23 23 22 19 17 17 10 8 6 3 2 6 12 20 25 21 17 16 16 13 14 16 16
25 22 24 26 22 21 20 12 19 15 18 24 24 18 13 21 30 34 23 26 26 25 23 23 22 23 21 20 10 6 3 4 7 11 18 24 25 21 18 16 16 17 19 21
26 27 22 22 23 23 20 17 13 12 15 16 22 24 21 19 21 22 21 29 30 26 26 25 26 27 27 27 15 6 5 7 10 12 18 26 29 27 22 17 16 16 19 22
29 29 26 25 27 23 22 21 17 13 11 17 17 12 25 12 16 11 17 26 25 30 31 30 28 31 34 35 26 15 13 12 13 14 18 25 29 32 27 21 17 18 21 23
30 28 27 27 24 25 20 26 24 24 19 10 10 14 15 15 12 11 9 14 25 22 30 32 31 34 37 40 35 25 20 18 18 18 19 23 29 30 33 24 22 23 25 24
25 22 27 27 23 23 23 19 19 24 10 11 12 14 19 21 14 9 8 13 14 20 29 34 30 34 39 41 38 32 25 22 21 22 20 23 30 31 33 30 26 25 24 23
35 25 27 29 30 30 28 20 17 19 19 10 10 6 15 14 11 9 7 8 10 14 19 25 29 33 39 40 41 35 27 25 24 24 21 21 28 32 34 37 30 27 26 24
32 20 23 38 26 27 27 24 16 19 14 15 16 8 13 11 10 12 9 6 8 12 15 29 28 32 39 41 42 41 27 28 27 26 23 22 25 30 35 39 34 29 26 24
30 26 18 20 28 29 27 25 27 23 21 22 17 8 11 11 12 10 9 6 7 11 10 24 28 30 40 42 40 34 27 29 29 28 25 25 26 31 34 39 34 29 26 26
30 33 26 25 26 27 31 29 28 31 26 25 22 8 10 10 12 11 6 4 5 10 16 24 28 32 40 39 34 34 31 31 29 27 26 27 28 30 34 39 32 28 26 25
33 24 28 29 29 25 25 30 29 30 31 27 20 19 24 12 18 12 16 12 10 11 17 22 27 26 39 41 39 37 34 32 28 25 26 28 29 31 35 35 28 26 23 24
25 21 21 26 26 26 29 28 29 30 29 30 27 26 21 19 7 10 6 9 12 13 16 22 25 30 36 42 43 38 34 35 29 28 23 30 29 33 36 29 28 27 28 25
27 28 27 27 25 27 32 31 31 28 28 26 25 17 12 13 16 12 8 13 13 21 19 21 26 28 38 41 44 41 40 31 28 26 24 27 29 33 30 27 26 27 29 28
22 32 31 30 29 23 29 27 27 27 26 26 25 23 14 15 9 6 8 14 21 18 17 16 21 25 33 38 41 43 37 30 27 22 23 27 31 32 29 28 29 27 30 38
13 18 25 30 31 27 25 19 5 6 14 16 15 23 27 10 8 9 12 8 12 16 14 15 20 25 31 37 39 35 34 23 22 20 22 29 30 28 29 31 31 32 31 32
15 14 26 18 17 19 26 19 21 9 19 10 6 14 19 14 8 8 7 11 15 17 17 17 15 24 29 34 36 26 21 19 17 17 25 28 28 28 30 33 33 28 30 35
27 20 20 19 22 29 23 18 15 22 39 21 17 6 7 4 4 5 12 19 24 24 22 18 16 17 21 29 31 20 16 17 15 21 27 28 29 32 34 34 33 26 36 34
28 20 22 27 25 26 26 11 14 8 18 12 12 7 6 15 9 5 7 19 20 16 19 18 14 17 16 19 24 19 19 17 18 24 26 28 33 35 30 29 40 33 34 35
22 33 23 12 4 12 3 19 21 18 13 14 18 17 17 14 15 15 23 17 26 19 18 15 17 19 20 20 22 29 26 22 20 24 29 30 32 35 37 34 37 34 36 32
16 5 4 14 23 13 10 8 12 8 11 10 5 5 9 16 23 28 31 21 26 36 28 23 20 20 21 23 27 31 27 19 23 26 33 36 36 30 32 33 36 33 30 34
16 15 20 6 9 13 20 18 10 12 14 16 19 22 23 27 29 32 27 18 29 26 24 15 21 21 31 38 32 32 21 13 16 30 29 29 24 25 29 31 28 22 29 36
10 1 4 7 10 2 7 6 6 10 8 13 18 16 17 14 11 14 20 25 37 16 25 30 34 34 39 39 32 31 21 24 22 33 34 23 19 15 21 37 41 38 33 29
Wind_Direction
209 198 207 200 199 211 212 222 184 247 188 161 177 175 185 179 184 186 187 183 185 182 197 199 221 253 208 250 202 217 237 232 250 265 273 281 285 285 285 284 285 283 279 281
196 208 206 204 207 219 225 223 218 205 182 194 160 172 192 186 187 193 195 192 187 189 205 184 192 175 207 207 149 149 144 136 71 26 355 318 299 288 283 280 277 276 278 284
202 205 210 212 210 219 234 228 230 210 183 198 225 160 180 218 198 196 202 204 197 195 203 191 184 174 190 185 161 138 120 88 50 24 4 352 330 296 279 276 270 284 303 300
210 208 214 215 218 211 225 224 240 228 195 217 206 233 219 199 198 201 204 205 202 198 203 208 196 192 195 185 194 184 129 65 34 12 359 350 337 308 279 267 274 291 286 292
213 215 214 219 223 221 229 216 225 229 240 237 241 235 180 197 202 207 213 207 202 205 204 208 206 207 196 212 204 206 227 335 5 357 350 350 348 331 310 295 288 285 291 293
219 221 214 216 218 214 211 236 210 225 247 254 234 225 184 220 221 224 217 216 210 206 209 214 223 224 201 222 212 213 236 319 323 332 340 348 354 347 328 313 305 309 313 312
215 217 207 205 204 205 207 208 208 226 231 242 238 229 232 203 225 235 214 204 212 207 212 212 218 223 225 230 220 222 262 292 296 312 332 345 352 347 335 317 305 307 304 308
208 218 204 202 206 201 201 212 213 208 230 232 217 191 231 207 203 214 225 195 209 214 208 221 214 225 233 237 242 238 251 280 290 303 323 340 347 354 341 326 313 310 308 305
200 219 206 204 209 205 200 230 231 258 269 261 204 218 231 230 214 216 216 225 224 224 212 217 219 227 236 245 251 246 246 266 281 295 308 331 336 348 350 332 321 312 309 307
202 217 199 208 208 215 218 212 232 246 266 284 247 241 229 179 182 199 208 217 224 246 224 209 217 226 237 246 253 258 242 257 271 286 296 323 331 337 340 338 323 316 313 309
214 202 201 200 204 213 214 227 223 237 233 266 260 72 113 151 166 174 199 219 233 240 248 228 216 226 240 247 256 265 241 252 264 276 288 315 324 325 332 337 327 321 317 314
222 236 244 201 210 212 224 213 224 243 258 263 287 291 169 162 177 194 200 217 227 226 240 226 222 224 237 243 253 263 248 248 257 267 277 295 314 317 325 331 328 321 317 317
217 227 243 229 210 212 220 225 223 229 240 258 254 202 174 177 176 179 184 178 240 253 232 232 247 230 235 245 257 266 255 249 251 261 275 287 305 313 321 326 323 319 319 319
216 219 230 241 228 209 209 221 230 245 238 243 239 189 199 224 201 194 208 245 293 262 244 239 246 226 233 247 260 263 259 252 252 262 279 287 302 313 321 323 322 323 320 322
219 223 231 232 248 249 237 223 227 234 252 264 241 218 248 214 230 227 214 269 295 289 263 248 245 244 234 243 250 258 259 250 242 257 278 290 303 315 318 320 321 321 322 325
200 218 225 242 244 240 248 252 225 227 231 243 250 240 277 194 187 225 249 255 264 280 259 239 251 245 232 240 247 255 266 254 245 260 282 282 304 314 317 320 325 320 321 325
205 212 223 240 237 247 254 246 244 244 238 240 260 263 158 151 203 239 258 282 288 309 259 243 245 243 238 242 245 253 258 263 244 252 268 289 305 312 310 316 326 332 324 321
218 222 216 231 237 243 242 252 246 249 236 243 242 240 248 255 271 286 263 291 314 296 273 239 247 246 241 245 247 251 259 257 240 253 278 296 308 304 308 317 320 315 322 327
198 211 219 224 231 242 244 249 231 3 270 254 265 242 244 258 260 275 289 268 260 286 300 273 243 244 235 242 247 250 254 231 238 264 288 302 301 306 314 310 307 314 318 328
233 196 234 268 244 254 249 251 243 280 282 281 318 226 236 226 261 270 269 261 267 281 289 283 275 240 227 237 242 246 227 231 247 273 291 299 312 308 302 301 300 307 315 321
231 217 234 233 247 259 258 286 224 222 248 252 286 229 192 18 232 296 303 298 292 294 294 295 279 248 243 233 240 230 223 233 255 283 301 311 306 299 299 297 300 291 308 311
257 236 244 247 249 251 252 203 182 162 194 191 203 225 208 216 230 232 282 289 280 271 282 290 258 247 243 224 228 229 232 243 266 294 303 299 297 295 287 282 293 290 301 303
231 233 235 249 141 67 144 120 153 171 175 189 184 191 209 236 270 279 296 285 266 259 242 249 253 240 239 232 221 219 228 240 284 295 291 290 289 292 291 286 281 290 301 297
220 105 282 243 224 210 325 163 185 210 233 247 269 271 279 274 279 286 294 277 257 263 227 237 233 228 238 230 225 226 236 265 287 292 292 287 290 291 288 288 282 290 293 305
251 239 250 262 175 190 199 233 253 255 253 253 260 272 284 287 290 291 288 248 250 241 206 237 188 213 225 218 225 207 216 266 301 292 301 300 286 284 293 291 254 281 300 305
8 207 188 83 230 92 102 128 230 231 252 280 283 297 308 301 299 280 249 238 247 217 233 254 237 244 241 272 268 295 308 316 299 310 306 294 288 286 288 288 290 299 303 301
Height
3165 3169 3167 3168 3170 3169 3170 3171 3178 3180 3177 3178 3184 3185 3189 3192 3195 3197 3199 3199 3201 3201 3201 3201 3200 3200 3201 3202 3204 3204 3206 3208 3209 3209 3209 3208 3207 3207 3206 3205 3204 3205 3204 3203
3165 3162 3164 3166 3168 3168 3168 3169 3171 3177 3177 3179 3183 3187 3188 3191 3191 3195 3197 3197 3200 3201 3198 3198 3199 3202 3203 3204 3203 3204 3205 3207 3207 3208 3208 3207 3205 3203 3202 3201 3200 3199 3198 3197
3158 3161 3162 3163 3165 3167 3166 3169 3169 3172 3175 3179 3182 3181 3183 3192 3192 3191 3195 3196 3197 3198 3197 3196 3198 3199 3201 3202 3204 3205 3205 3206 3206 3206 3206 3205 3203 3201 3199 3196 3196 3192 3193 3192
3156 3158 3159 3161 3162 3166 3166 3169 3169 3170 3171 3173 3176 3177 3175 3184 3186 3187 3188 3190 3194 3195 3195 3196 3196 3198 3200 3201 3202 3204 3204 3205 3205 3205 3204 3202 3198 3196 3194 3193 3191 3192 3191 3189
3151 3152 3155 3157 3159 3163 3165 3167 3168 3168 3169 3171 3171 3174 3168 3180 3179 3181 3184 3186 3190 3192 3194 3195 3196 3197 3200 3199 3201 3202 3203 3203 3204 3204 3202 3200 3196 3192 3189 3188 3188 3188 3186 3185
3147 3150 3151 3154 3157 3160 3163 3165 3164 3167 3168 3165 3165 3167 3170 3174 3176 3177 3184 3187 3189 3189 3192 3195 3195 3195 3198 3197 3199 3200 3202 3202 3202 3202 3201 3198 3194 3191 3187 3185 3183 3182 3180 3179
3144 3144 3147 3151 3154 3157 3159 3162 3163 3165 3162 3158 3156 3159 3162 3165 3170 3172 3173 3173 3184 3185 3188 3192 3193 3191 3193 3192 3195 3197 3199 3199 3199 3199 3198 3195 3191 3188 3185 3183 3181 3180 3178 3176
3138 3139 3142 3146 3148 3150 3155 3158 3156 3156 3149 3148 3150 3155 3159 3160 3162 3164 3168 3169 3175 3177 3180 3185 3190 3189 3188 3188 3192 3194 3195 3196 3196 3195 3194 3193 3190 3186 3182 3181 3179 3177 3175 3173
3132 3135 3138 3142 3145 3148 3153 3154 3153 3150 3147 3146 3149 3152 3156 3158 3162 3164 3168 3173 3172 3177 3174 3176 3182 3184 3184 3184 3187 3190 3191 3192 3192 3192 3191 3190 3189 3186 3182 3179 3176 3174 3171 3169
3129 3132 3133 3139 3144 3145 3147 3152 3153 3149 3147 3147 3142 3146 3145 3151 3158 3162 3165 3168 3172 3169 3171 3164 3175 3177 3178 3180 3182 3185 3187 3188 3188 3188 3188 3186 3184 3182 3181 3177 3174 3171 3168 3165
3122 3124 3128 3133 3135 3140 3143 3146 3147 3147 3147 3143 3143 3150 3148 3152 3157 3160 3163 3166 3169 3171 3171 3169 3174 3175 3174 3175 3176 3180 3181 3183 3184 3184 3184 3183 3181 3178 3176 3173 3169 3166 3163 3161
3118 3122 3121 3123 3129 3135 3138 3141 3144 3145 3145 3146 3145 3147 3147 3151 3154 3157 3159 3162 3164 3167 3168 3168 3170 3171 3170 3171 3171 3173 3176 3177 3178 3179 3180 3180 3178 3175 3172 3168 3165 3161 3158 3156
3116 3118 3119 3121 3125 3128 3133 3137 3140 3143 3143 3142 3144 3145 3146 3149 3152 3154 3156 3157 3159 3161 3165 3167 3168 3168 3165 3167 3167 3168 3170 3171 3172 3173 3174 3175 3173 3170 3167 3164 3160 3157 3154 3151
3112 3114 3116 3116 3120 3123 3127 3131 3135 3136 3136 3138 3139 3144 3149 3148 3149 3150 3153 3154 3155 3157 3158 3160 3160 3162 3160 3161 3162 3162 3164 3165 3166 3167 3169 3169 3167 3166 3163 3159 3155 3152 3150 3148
3105 3109 3114 3116 3117 3119 3121 3125 3128 3130 3132 3134 3135 3140 3143 3147 3154 3149 3147 3149 3150 3152 3153 3152 3153 3155 3154 3155 3156 3157 3159 3161 3162 3163 3163 3162 3160 3159 3158 3154 3151 3148 3146 3143
3100 3105 3111 3114 3115 3116 3117 3117 3119 3123 3126 3127 3130 3133 3128 3139 3141 3144 3143 3144 3146 3143 3146 3148 3147 3149 3148 3147 3150 3152 3155 3155 3158 3157 3159 3160 3156 3154 3152 3149 3146 3144 3142 3140
3098 3103 3109 3110 3113 3114 3112 3112 3113 3115 3119 3123 3125 3131 3129 3130 3136 3135 3136 3138 3138 3137 3139 3141 3143 3143 3141 3141 3144 3145 3147 3151 3153 3154 3155 3154 3152 3150 3147 3145 3143 3140 3138 3136
3096 3099 3102 3106 3109 3105 3106 3108 3109 3109 3114 3118 3117 3119 3122 3124 3130 3129 3127 3131 3129 3134 3134 3135 3137 3138 3138 3136 3138 3140 3142 3145 3147 3149 3150 3148 3146 3144 3141 3140 3137 3134 3132 3130
3086 3092 3097 3097 3098 3100 3102 3104 3100 3104 3109 3115 3114 3114 3118 3120 3128 3127 3121 3124 3126 3130 3129 3130 3131 3132 3132 3131 3131 3133 3136 3139 3142 3143 3144 3142 3140 3138 3135 3133 3130 3127 3125 3123
3092 3094 3103 3084 3094 3092 3095 3097 3099 3101 3102 3106 3109 3111 3113 3115 3123 3118 3116 3120 3123 3125 3125 3125 3125 3125 3125 3125 3124 3127 3130 3133 3136 3137 3137 3136 3134 3131 3129 3127 3123 3121 3120 3116
3086 3085 3087 3089 3091 3090 3093 3090 3090 3102 3101 3107 3112 3110 3109 3116 3119 3116 3116 3117 3118 3119 3119 3120 3120 3118 3118 3120 3120 3124 3126 3128 3130 3130 3130 3128 3125 3123 3121 3119 3117 3115 3114 3111
3079 3077 3078 3081 3083 3086 3090 3089 3095 3101 3099 3107 3108 3106 3113 3116 3115 3116 3117 3112 3112 3113 3113 3114 3114 3114 3115 3117 3116 3118 3121 3124 3125 3126 3124 3122 3119 3116 3114 3112 3108 3107 3105 3103
3076 3073 3077 3080 3085 3086 3091 3086 3090 3098 3100 3100 3102 3104 3108 3110 3110 3109 3108 3112 3107 3106 3107 3107 3108 3108 3111 3112 3112 3113 3114 3116 3118 3118 3117 3116 3114 3110 3107 3105 3098 3097 3096 3092
3074 3073 3078 3078 3077 3078 3081 3076 3086 3090 3094 3095 3098 3102 3102 3102 3102 3101 3102 3106 3103 3096 3094 3088 3098 3097 3103 3104 3102 3102 3105 3109 3111 3112 3111 3109 3105 3102 3100 3097 3096 3095 3092 3084
3074 3066 3074 3078 3069 3085 3079 3081 3082 3087 3091 3091 3092 3094 3095 3094 3094 3094 3095 3098 3096 3087 3066 3075 3075 3089 3091 3088 3086 3072 3087 3090 3098 3102 3099 3100 3096 3093 3092 3087 3076 3081 3087 3081
3073 3079 3071 3067 3071 3073 3075 3079 3078 3083 3087 3087 3088 3090 3090 3090 3090 3088 3090 3090 3086 3061 3076 3077 3085 3088 3089 3083 3079 3081 3088 3087 3090 3092 3091 3088 3088 3087 3084 3079 3078 3080 3075 3073